Stations météo

réclame
Mon MeteoGroup
Cardinham, Grande-Bretagne (3823): Température de l'air & dewpoint: 18.02.2018 21:00:00 - 24.02.2018 21:00:00 (GMT)Cardinham, Grande-Bretagne (3823): Température de l'air -20cm & Température de l'air -100cm: 18.02.2018 21:00:00 - 24.02.2018 21:00:00 (GMT)Cardinham, Grande-Bretagne (3823): Vitesse du vent & gusts: 18.02.2018 21:00:00 - 24.02.2018 21:00:00 (GMT)Cardinham, Grande-Bretagne (3823): Direction du vent: 18.02.2018 21:00:00 - 24.02.2018 21:00:00 (GMT)Cardinham, Grande-Bretagne (3823): reduced air pressure: 18.02.2018 21:00:00 - 24.02.2018 21:00:00 (GMT)Cardinham, Grande-Bretagne (3823): visibility: 18.02.2018 21:00:00 - 24.02.2018 21:00:00 (GMT)Cardinham, Grande-Bretagne (3823): Quantités de précipitations: 18.02.2018 21:00:00 - 24.02.2018 21:00:00 (GMT)
Date & Time tt [°C] td [°C] tt -20cm [°C] tt -100cm [°C] ff [km/h] ff [knt] fx [km/h] fx [knt] dd ppp [hPa] vv [km] rr [mm]
24.02.2018 21:00:00 1,9 -2,9 - - 29 16 - - E 1019,4 12 0,0
24.02.2018 20:00:00 2,1 -2,8 - - 26 14 - - E 1019,1 13 0,0
24.02.2018 19:00:00 1,9 -2,1 - - 21 11 - - E 1018,8 13 0,0
24.02.2018 18:00:00 2,7 -1,6 - - 16 9 - - ENE 1018,2 13 0,0
24.02.2018 17:00:00 5,4 -2,6 - - 21 11 - - E 1017,6 26 0,0
24.02.2018 16:00:00 6,2 -1,4 - - 16 9 - - ESE 1017,5 19 0,0
24.02.2018 15:00:00 6,1 -1,1 - - 16 9 - - ESE 1017,7 15 0,0
24.02.2018 14:00:00 5,4 -1,0 - - 21 11 - - ESE 1017,9 12 0,0
24.02.2018 13:00:00 5,0 -1,1 - - 21 11 - - SE 1018,1 15 0,0
24.02.2018 12:00:00 4,2 -1,2 - - 26 14 - - ESE 1018,3 11 0,0
24.02.2018 11:00:00 3,7 -0,9 - - 28 15 46 25 E 1018,1 12 0,0
24.02.2018 10:00:00 2,7 -0,6 - - 29 16 - - ESE 1017,9 13 0,0
24.02.2018 09:00:00 1,8 -0,9 6,0 7,2 24 13 - - E 1018,0 9 0,0
24.02.2018 08:00:00 0,9 -1,1 - - 22 12 - - E 1018,0 7 0,0
24.02.2018 07:00:00 0,8 -1,0 - - 22 12 - - ESE 1017,2 6 0,0
24.02.2018 06:00:00 1,2 -0,5 - - 22 12 - - ESE 1016,5 6 0,0
24.02.2018 05:00:00 0,5 -0,8 - - 21 11 - - ESE 1015,9 5 0,0
24.02.2018 04:00:00 1,0 -0,6 - - 21 11 - - ESE 1015,5 5 0,0
24.02.2018 03:00:00 1,2 -0,9 - - 24 13 - - ESE 1015,5 7 0,0
24.02.2018 02:00:00 1,5 -1,1 - - 24 13 - - E 1015,7 8 0,0
24.02.2018 01:00:00 1,1 -1,5 - - 22 12 - - ESE 1015,8 9 0,0
24.02.2018 00:00:00 1,2 -1,9 - - 26 14 46 25 ESE 1015,6 13 0,0
23.02.2018 23:00:00 1,8 -1,9 - - 31 17 48 26 ESE 1015,7 14 0,0
23.02.2018 22:00:00 2,1 -2,1 - - 35 19 52 28 ESE 1015,7 17 0,0
23.02.2018 21:00:00 2,0 -1,9 - - 34 18 55 30 ESE 1015,5 17 0,0
23.02.2018 20:00:00 1,8 -2,4 - - 37 20 59 32 ESE 1015,6 17 0,0
23.02.2018 19:00:00 1,9 -2,3 - - 34 18 52 28 ESE 1015,7 18 0,0
23.02.2018 18:00:00 1,6 -2,2 - - 31 17 55 30 ESE 1015,5 17 0,0
23.02.2018 17:00:00 2,2 -2,6 - - 35 19 54 29 ESE 1015,6 16 0,0
23.02.2018 16:00:00 3,3 -1,9 - - 31 17 54 29 ESE 1015,8 15 0,0
23.02.2018 15:00:00 3,7 -2,0 - - 37 20 57 31 ESE 1016,0 17 0,0
23.02.2018 14:00:00 3,7 -0,5 - - 39 21 61 33 ESE 1016,4 12 0,0
23.02.2018 13:00:00 3,3 -0,6 - - 42 23 57 31 ESE 1017,0 12 0,0
23.02.2018 12:00:00 3,3 -0,6 - - 35 19 57 31 ESE 1017,5 10 0,0
23.02.2018 11:00:00 2,9 -0,8 - - 34 18 48 26 ESE 1018,1 10 0,0
23.02.2018 10:00:00 2,1 -1,2 - - 34 18 50 27 ESE 1018,5 10 0,0
23.02.2018 09:00:00 1,6 -1,3 6,7 7,2 28 15 - - ESE 1018,6 9 0,0
23.02.2018 08:00:00 0,8 -1,3 - - 24 13 - - ESE 1018,5 9 0,0
23.02.2018 07:00:00 0,9 -1,1 - - 24 13 - - ESE 1018,2 8 0,0
23.02.2018 06:00:00 0,6 -0,9 - - 22 12 - - ESE 1018,5 7 0,0
23.02.2018 05:00:00 1,1 -0,8 - - 24 13 - - ESE 1018,7 9 0,0
23.02.2018 04:00:00 0,5 -1,8 - - 18 10 - - ESE 1018,9 13 0,0
23.02.2018 03:00:00 -0,1 -2,2 - - 18 10 - - ESE 1019,2 12 0,0
23.02.2018 02:00:00 -0,4 -2,3 - - 15 8 - - ESE 1019,8 9 0,0
23.02.2018 01:00:00 0,0 -2,4 - - 16 9 - - SE 1020,0 10 0,0
23.02.2018 00:00:00 0,8 -2,0 - - 21 11 - - ESE 1020,0 9 0,0
22.02.2018 23:00:00 0,6 -2,2 - - 24 13 - - E 1020,2 8 0,0
22.02.2018 22:00:00 0,2 -2,3 - - 18 10 - - E 1020,8 8 0,0
22.02.2018 21:00:00 0,8 -2,6 - - 15 8 - - E 1021,2 9 0,0
22.02.2018 20:00:00 1,0 -2,6 - - 21 11 - - E 1021,5 10 0,0
22.02.2018 19:00:00 1,0 -2,2 - - 22 12 - - E 1021,5 10 0,0
22.02.2018 18:00:00 1,8 -1,6 - - 18 10 - - ESE 1021,1 11 0,0
22.02.2018 17:00:00 4,0 0,0 - - 18 10 - - ESE 1020,7 12 0,0
22.02.2018 16:00:00 4,7 -0,2 - - 21 11 - - ESE 1020,6 14 0,0
22.02.2018 15:00:00 4,8 0,6 - - 21 11 - - ESE 1020,9 13 0,0
22.02.2018 14:00:00 6,5 0,2 - - 15 8 - - ESE 1021,0 19 0,0
22.02.2018 13:00:00 5,5 -0,2 - - 18 10 - - ESE 1021,7 19 0,0
22.02.2018 12:00:00 6,2 1,5 - - 18 10 - - ESE 1022,0 15 0,0
22.02.2018 11:00:00 5,4 1,6 - - 16 9 - - ESE 1022,5 11 0,0
22.02.2018 10:00:00 4,3 1,3 - - 15 8 - - E 1022,7 14 0,0
22.02.2018 09:00:00 2,0 0,7 7,0 7,2 21 11 - - E 1022,8 7 0,0
22.02.2018 08:00:00 0,9 -0,2 - - 11 6 - - E 1022,9 10 0,0
22.02.2018 07:00:00 0,3 -0,7 - - 13 7 - - ENE 1022,9 8 0,0
22.02.2018 06:00:00 0,5 -0,5 - - 15 8 - - E 1023,1 8 0,0
22.02.2018 05:00:00 1,0 -0,1 - - 15 8 - - E 1023,1 7 0,0
22.02.2018 04:00:00 1,2 0,0 - - 15 8 - - E 1023,2 7 0,0
22.02.2018 03:00:00 0,9 -0,2 - - 13 7 - - E 1023,6 6 0,0
22.02.2018 02:00:00 2,6 0,7 - - 21 11 - - E 1023,9 10 0,0
22.02.2018 01:00:00 1,9 0,5 - - 21 11 - - E 1024,3 6 0,0
22.02.2018 00:00:00 1,8 0,1 - - 18 10 - - E 1024,8 9 0,0
21.02.2018 23:00:00 1,7 -0,2 - - 16 9 - - E 1024,9 11 0,0
21.02.2018 22:00:00 1,3 -0,7 - - 13 7 - - E 1025,5 10 0,0
21.02.2018 21:00:00 1,5 -1,1 - - 13 7 - - ENE 1025,8 10 0,0
21.02.2018 20:00:00 2,1 -0,8 - - 8 4 - - E 1025,7 13 0,0
21.02.2018 19:00:00 2,5 -0,7 - - 4 2 - - ESE 1025,8 12 0,0
21.02.2018 18:00:00 3,2 -1,0 - - 8 4 - - SSE 1025,5 12 0,0
21.02.2018 17:00:00 5,9 0,4 - - 11 6 - - SSE 1025,3 16 0,0
21.02.2018 16:00:00 7,4 1,8 - - 11 6 - - SSE 1025,0 30 0,0
21.02.2018 15:00:00 8,2 0,5 - - 16 9 - - ESE 1025,2 26 0,0
21.02.2018 14:00:00 8,3 2,8 - - 16 9 - - ENE 1025,7 30 0,0
21.02.2018 13:00:00 6,9 1,3 - - 15 8 - - E 1026,5 35 0,0
21.02.2018 12:00:00 7,3 2,8 - - 13 7 - - E 1026,9 29 0,0
21.02.2018 11:00:00 6,8 2,8 - - 21 11 - - E 1027,0 35 0,0
21.02.2018 10:00:00 6,2 3,1 - - 16 9 - - ENE 1026,9 24 0,0
21.02.2018 09:00:00 4,4 2,9 7,2 7,0 13 7 - - ENE 1027,4 20 0,0
21.02.2018 08:00:00 3,7 2,4 - - 15 8 - - NE 1027,0 17 0,0
21.02.2018 07:00:00 3,4 2,4 - - 13 7 - - ENE 1027,2 16 0,0
21.02.2018 06:00:00 2,6 2,1 - - 15 8 - - NE 1027,3 13 0,0
21.02.2018 05:00:00 1,6 0,9 - - 13 7 - - NNE 1027,3 16 0,0
21.02.2018 04:00:00 1,9 1,3 - - 13 7 - - NNE 1027,3 11 0,0
21.02.2018 03:00:00 2,2 1,6 - - 13 7 - - NNW 1027,4 10 0,0
21.02.2018 02:00:00 2,2 1,1 - - 11 6 - - N 1027,4 12 0,0
21.02.2018 01:00:00 2,8 1,6 - - 15 8 - - NNE 1027,4 15 0,0
21.02.2018 00:00:00 3,2 1,9 - - 16 9 - - NNE 1027,4 13 0,0
20.02.2018 23:00:00 3,8 2,8 - - 24 13 - - NNE 1027,2 12 0,0
20.02.2018 22:00:00 4,2 3,2 - - 24 13 - - N 1027,3 10 0,0
20.02.2018 21:00:00 4,8 3,4 - - 28 15 - - N 1027,3 11 0,0
20.02.2018 20:00:00 4,8 3,1 - - 24 13 - - N 1027,3 13 0,0
20.02.2018 19:00:00 5,4 3,6 - - 21 11 - - N 1027,3 12 0,0
20.02.2018 18:00:00 5,6 3,6 - - 24 13 - - NNW 1026,7 13 0,0
20.02.2018 17:00:00 6,6 4,0 - - 26 14 46 25 N 1026,2 12 0,0
20.02.2018 16:00:00 7,0 3,0 - - 31 17 48 26 N 1025,5 18 0,0
20.02.2018 15:00:00 8,1 3,1 - - 28 15 48 26 N 1025,4 16 0,0
20.02.2018 14:00:00 7,9 3,2 - - 34 18 48 26 N 1025,9 18 0,0
20.02.2018 13:00:00 8,1 3,4 - - 28 15 46 25 N 1026,1 15 0,0
20.02.2018 12:00:00 8,2 3,6 - - 29 16 55 30 N 1025,8 14 0,0
20.02.2018 11:00:00 7,7 4,8 - - 31 17 54 29 N 1025,7 20 0,0
20.02.2018 10:00:00 7,6 5,1 - - 28 15 52 28 N 1025,7 16 0,0
20.02.2018 09:00:00 6,5 4,6 7,0 7,0 29 16 46 25 N 1025,3 14 0,0
20.02.2018 08:00:00 5,6 4,6 - - 29 16 - - N 1024,5 11 0,0
20.02.2018 07:00:00 5,1 4,3 - - 26 14 - - N 1023,9 10 0,0
20.02.2018 06:00:00 5,8 5,3 - - 31 17 50 27 N 1023,5 11 0,0
20.02.2018 05:00:00 6,2 6,2 - - 26 14 - - N 1023,2 9 0,0
20.02.2018 04:00:00 6,3 6,3 - - 21 11 - - N 1022,7 11 0,0
20.02.2018 03:00:00 7,0 7,0 - - 24 13 - - N 1022,5 4,4 0,2
20.02.2018 02:00:00 7,8 7,8 - - 22 12 - - N 1021,8 1,9 0,2
20.02.2018 01:00:00 7,8 7,8 - - 16 9 - - NNW 1022,1 0,2 0,0
20.02.2018 00:00:00 7,4 7,4 - - 16 9 - - NNW 1021,8 0,3 0,2
19.02.2018 23:00:00 7,3 7,3 - - 21 11 - - NNW 1021,5 0,2 0,0
19.02.2018 22:00:00 7,8 7,8 - - 18 10 - - NNW 1021,1 0,1 0,0
19.02.2018 21:00:00 7,9 7,9 - - 22 12 - - NNW 1021,0 0,1 0,0
19.02.2018 20:00:00 8,1 8,1 - - 16 9 - - NNW 1020,8 0,1 0,0
19.02.2018 19:00:00 8,2 8,2 - - 16 9 - - NNW 1020,7 0,1 0,0
19.02.2018 18:00:00 8,2 8,2 - - 18 10 - - NNW 1020,5 0,1 0,0
19.02.2018 17:00:00 8,3 8,3 - - 22 12 - - NNW 1020,4 0,1 0,0
19.02.2018 16:00:00 8,3 8,3 - - 18 10 - - NNW 1020,2 0,1 0,2
19.02.2018 15:00:00 8,3 8,2 - - 22 12 - - NW 1020,3 0,1 0,0
19.02.2018 14:00:00 8,6 8,6 - - 18 10 - - NNW 1020,4 1,7 0,0
19.02.2018 13:00:00 8,5 8,5 - - 16 9 - - NNW 1020,5 0,3 0,0
19.02.2018 12:00:00 8,1 8,1 - - 13 7 - - NNW 1020,7 0,2 0,0
19.02.2018 11:00:00 8,1 8,1 - - 13 7 - - NNW 1020,5 0,1 0,0
19.02.2018 10:00:00 8,2 8,2 - - 13 7 - - NW 1020,3 0,1 0,0
19.02.2018 09:00:00 7,8 7,8 6,7 6,9 16 9 - - NW 1020,2 0,1 0,0
19.02.2018 08:00:00 8,1 8,1 - - 15 8 - - NW 1020,1 0,1 0,0
19.02.2018 07:00:00 8,2 8,2 - - 11 6 - - NW 1019,6 0,1 0,0
19.02.2018 06:00:00 8,3 8,3 - - 9 5 - - NW 1019,2 0,1 0,0
19.02.2018 05:00:00 8,3 8,3 - - 9 5 - - NNW 1019,2 0,1 0,2
19.02.2018 04:00:00 8,3 8,3 - - 11 6 - - NW 1019,3 0,2 0,8
19.02.2018 03:00:00 8,3 8,3 - - 13 7 - - NW 1019,5 0,1 0,2
19.02.2018 02:00:00 8,4 8,4 - - 13 7 - - NW 1019,5 0,1 0,2
19.02.2018 01:00:00 8,5 8,5 - - 13 7 - - NW 1019,8 0,1 0,4
19.02.2018 00:00:00 8,5 8,4 - - 13 7 - - NW 1019,9 0,1 0,2
18.02.2018 23:00:00 8,4 8,4 - - 13 7 - - NW 1019,9 0,1 0,0
18.02.2018 22:00:00 8,3 8,3 - - 13 7 - - NW 1020,0 0,1 0,0
18.02.2018 21:00:00 8,2 8,2 - - 13 7 - - NW 1020,0 0,1 0,0

tt = Température de l'air
td = dewpoint
tt -20cm = Température de l'air -20cm
tt -100cm = Température de l'air -100cm
ff = Vitesse du vent
fx = gusts
dd = Direction du vent
ppp = reduced air pressure
vv = visibility
rr = Quantités de précipitations

stations d'obs. à proximité